This demonstration page uses our WeatherBlox Daily Observations layout. Learn more.

Left ArrowRight Arrow

53.62937, 11.41316

Hourly Observations for April 9, 2022

Temp ( °F °C ) Dew Point ( °F °C ) Humidity (%) Winds ( mph kmh ) Pressure ( in mb ) Visibility ( mi km ) Precip ( " mm )
12:20 am 00:20 Mostly Clear 37 3 34 1 87 87 WSW 7 11 29.36 994 30 48 N/A
12:50 am 00:50 Mostly Clear 37 3 34 1 87 87 W 7 11 29.36 994 30 48 N/A
1:20 am 01:20 Partly Cloudy 37 3 34 1 87 87 W 7 11 29.38 995 30 48 N/A
1:50 am 01:50 Mostly Clear 37 3 34 1 87 87 W 7 11 29.38 995 30 48 N/A
2:20 am 02:20 Mostly Clear 36 2 34 1 93 93 W 7 11 29.39 995 30 48 N/A
2:50 am 02:50 Mostly Clear 36 2 34 1 93 93 W 7 11 29.39 995 30 48 N/A
3:20 am 03:20 Mostly Clear 36 2 34 1 93 93 WSW 8 13 29.41 996 30 48 N/A
3:50 am 03:50 Mostly Clear 36 2 34 1 93 93 WSW 7 11 29.41 996 30 48 N/A
4:20 am 04:20 Mostly Clear 37 3 34 1 87 87 W 9 15 29.44 997 30 48 N/A
4:50 am 04:50 Mostly Clear 36 2 32 0 87 87 WSW 9 15 29.44 997 30 48 N/A
5:20 am 05:20 Mostly Clear 36 2 32 0 87 87 WSW 8 13 29.44 997 30 48 N/A
5:50 am 05:50 Mostly Clear 36 2 32 0 87 87 WSW 8 13 29.47 998 30 48 N/A
6:20 am 06:20 Mostly Clear 36 2 32 0 87 87 WSW 8 13 29.47 998 30 48 N/A
6:50 am 06:50 Mostly Sunny 36 2 32 0 87 87 WSW 9 15 29.47 998 30 48 N/A
7:20 am 07:20 Mostly Sunny 37 3 32 0 81 81 WSW 10 17 29.50 999 30 48 N/A
7:50 am 07:50 Partly Cloudy 37 3 32 0 81 81 WSW 9 15 29.50 999 30 48 N/A
8:20 am 08:20 Partly Cloudy 37 3 34 1 87 87 W 12 19 29.53 1000 30 48 N/A
8:50 am 08:50 Partly Cloudy 37 3 34 1 87 87 W 10 17 29.53 1000 30 48 N/A
9:20 am 09:20 Partly Cloudy with Light Showers 39 4 36 2 87 87 WSW 12 19 29.53 1000 30 48 N/A
9:50 am 09:50 Partly Cloudy 41 5 36 2 81 81 WSW 15 24 29.56 1001 30 48 N/A
10:20 am 10:20 Mostly Sunny 41 5 36 2 81 81 WSW 12 19 29.56 1001 30 48 N/A
10:50 am 10:50 Mostly Sunny 43 6 37 3 81 81 WSW 14 22 29.56 1001 30 48 N/A
11:20 am 11:20 Mostly Cloudy with Light Rain 37 3 34 1 87 87 W 15 24 29.59 1002 2 4 N/A
11:50 am 11:50 Partly Cloudy with Light Rain 39 4 36 2 87 87 W 12 19 29.59 1002 30 48 N/A
12:20 pm 12:20 Mostly Sunny 41 5 37 3 87 87 WSW 8 13 29.59 1002 30 48 N/A
12:50 pm 12:50 Partly Cloudy with Light Rain 43 6 37 3 81 81 WSW 13 20 29.59 1002 30 48 N/A
1:20 pm 13:20 Partly Cloudy with Light Rain 43 6 39 4 87 87 W 12 19 29.59 1002 30 48 N/A
1:50 pm 13:50 Mostly Cloudy with Light Rain 45 7 37 3 76 76 W 16 26 29.62 1003 30 48 N/A
2:20 pm 14:20 Partly Cloudy with Showers Nearby 45 7 37 3 76 76 WNW 15 24 29.62 1003 30 48 N/A
2:50 pm 14:50 Partly Cloudy with Showers Nearby 46 8 30 -1 53 53 WNW 20 31 29.62 1003 30 48 N/A
3:20 pm 15:20 Partly Cloudy with Showers Nearby 45 7 34 1 66 66 W 17 28 29.65 1004 30 48 N/A
3:50 pm 15:50 Partly Cloudy with Showers Nearby 45 7 30 -1 57 57 W 20 31 29.65 1004 30 48 N/A
4:20 pm 16:20 Partly Cloudy with Showers Nearby 46 8 28 -2 50 50 W 22 35 29.65 1004 30 48 N/A
4:50 pm 16:50 Partly Cloudy with Showers Nearby 46 8 30 -1 53 53 W 18 30 29.65 1004 30 48 N/A
5:20 pm 17:20 Partly Cloudy with Light Showers 39 4 34 1 81 81 NW 18 30 29.68 1005 30 48 N/A
5:50 pm 17:50 Partly Cloudy with Light Rain 45 7 32 0 61 61 W 16 26 29.68 1005 30 48 N/A
6:20 pm 18:20 Windy with Rain Showers Likely 43 6 30 -1 61 61 W 21 33 29.71 1006 30 48 N/A
6:50 pm 18:50 Partly Cloudy with Showers Nearby 43 6 32 0 66 66 W 13 20 29.71 1006 30 48 N/A
7:20 pm 19:20 Partly Cloudy with Showers Nearby 43 6 32 0 66 66 W 12 19 29.71 1006 30 48 N/A
7:50 pm 19:50 Partly Cloudy with Showers Nearby 43 6 32 0 66 66 W 15 24 29.71 1006 30 48 N/A
8:20 pm 20:20 Mostly Clear 41 5 34 1 76 76 W 14 22 29.74 1007 30 48 N/A
8:50 pm 20:50 Mostly Clear 41 5 32 0 70 70 W 10 17 29.74 1007 7 11 N/A
9:20 pm 21:20 Mostly Clear 41 5 32 0 70 70 W 12 19 29.77 1008 30 48 N/A
9:50 pm 21:50 Mostly Clear 39 4 32 0 75 75 W 10 17 29.77 1008 30 48 N/A
10:20 pm 22:20 Mostly Clear 39 4 32 0 75 75 W 10 17 29.77 1008 30 48 N/A
10:50 pm 22:50 Mostly Clear 39 4 32 0 75 75 W 12 19 29.77 1008 30 48 N/A
11:20 pm 23:20 Mostly Clear 39 4 32 0 75 75 W 12 19 29.77 1008 30 48 N/A
11:50 pm 23:50 Mostly Clear 37 3 32 0 81 81 WSW 10 17 29.77 1008 30 48 N/A

Powered by AerisWeather